Location: Ciserano
(45.5833°N, 9.6000°E)
Time: 19:10:14
(UTC+00:00)

Cosmos 1295 Rocket - Visible Passes

Search period start: 17 April 2021 00:00
Search period end: 27 April 2021 00:00
Orbit: 943 x 994 km, 82.9° (Epoch: 17 April)

Date Brightness Start Highest point End Pass type
(mag) Time Alt. Az. Time Alt. Az. Time Alt. Az.
17 Apr 4.7 00:35:06 10° NNW 00:40:30 64° NW 00:40:30 64° NW visible
17 Apr 6.5 02:23:42 10° WNW 02:25:00 11° WNW 02:25:00 11° WNW visible
17 Apr 5.7 23:13:38 10° N 23:19:10 33° ENE 23:19:10 33° ENE visible
18 Apr 5.2 00:58:43 10° NNW 01:03:41 41° WNW 01:03:41 41° WNW visible
18 Apr 5.0 23:36:41 10° N 23:42:22 53° ENE 23:42:22 53° ENE visible
19 Apr 5.8 01:22:40 10° NNW 01:26:53 25° WNW 01:26:53 25° WNW visible
19 Apr 6.5 22:16:21 10° NNE 22:20:07 16° ENE 22:21:03 16° ENE visible
19 Apr 4.6 23:59:58 10° N 00:05:34 73° N 00:05:34 73° N visible
20 Apr 6.3 01:47:14 10° NW 01:50:05 15° WNW 01:50:05 15° WNW visible
20 Apr 5.9 22:38:47 10° NNE 22:43:58 26° ENE 22:44:16 26° ENE visible
21 Apr 4.9 00:23:29 10° NNW 00:28:47 52° WNW 00:28:47 52° WNW visible
21 Apr 5.2 23:01:42 10° N 23:07:30 43° ENE 23:07:30 43° ENE visible
22 Apr 5.5 00:47:15 10° NNW 00:52:01 32° WNW 00:52:01 32° WNW visible
22 Apr 6.6 21:42:07 10° NE 21:44:44 13° ENE 21:46:13 12° ENE visible
22 Apr 4.6 23:24:53 10° N 23:30:44 69° NE 23:30:44 69° NE visible
23 Apr 6.1 01:11:26 10° NW 01:15:15 20° WNW 01:15:15 20° WNW visible
23 Apr 6.1 22:04:02 10° NNE 22:08:41 21° ENE 22:09:28 21° ENE visible
23 Apr 4.6 23:48:17 10° NNW 23:53:59 67° WNW 23:53:59 67° WNW visible
24 Apr 6.6 01:37:03 10° WNW 01:38:30 11° WNW 01:38:30 11° WNW visible
24 Apr 5.5 22:26:47 10° N 22:32:28 34° ENE 22:32:43 34° ENE visible
25 Apr 5.2 00:11:56 10° NNW 00:17:14 41° WNW 00:17:14 41° WNW visible
25 Apr 4.8 22:49:51 10° N 22:55:59 56° ENE 22:55:59 56° ENE visible
26 Apr 5.8 00:35:52 10° NNW 00:40:30 25° WNW 00:40:30 25° WNW visible
26 Apr 6.3 21:29:27 10° NNE 21:33:22 17° ENE 21:34:44 16° ENE visible
26 Apr 4.4 23:13:10 10° N 23:19:16 84° NNW 23:19:16 84° NNW visible
